Location: Peterborough
(44.3091°N, 78.3197°W)
Time: 14:03:42
(UTC-04:00)

Envisat - Pass Details

Date: 22 April 2026
Orbit: 761 x 762 km, 98.4° (Epoch: 17 May)

Event Time Altitude Azimuth Distance (km) Brightness Sun altitude
Rises 04:32:26 0° 7° (N) 3,234 6.9 -17.4°
Reaches altitude 10° 04:34:50 10° 1° (N) 2,304 6.0 -17.1°
Maximum altitude 04:39:36 44° 291° (WNW) 1,054 3.5 -16.4°
Enters shadow 04:41:56 27° 237° (WSW) 1,449 3.8 -16.1°
